www.pogodaiklimat.ru
ПОГОДА в Сан-Луис-Обиспо
Время
и дата
00:56 20.07
01:56 20.07
02:56 20.07
03:56 20.07
04:56 20.07
05:12 20.07
05:48 20.07
05:53 20.07
05:56 20.07
06:15 20.07
06:23 20.07
06:56 20.07
07:39 20.07
07:56 20.07
08:06 20.07
08:56 20.07
09:56 20.07
10:56 20.07
11:56 20.07
12:56 20.07
13:56 20.07
14:56 20.07
15:56 20.07
16:56 20.07
17:56 20.07
18:56 20.07
19:56 20.07
20:26 20.07
20:48 20.07
20:56 20.07
21:56 20.07
22:54 20.07
22:56 20.07
23:56 20.07
00:56 21.07
01:56 21.07
02:17 21.07
02:56 21.07
03:56 21.07
04:30 21.07
04:51 21.07
04:56 21.07
05:53 21.07
05:56 21.07
06:21 21.07
06:29 21.07
06:56 21.07
07:26 21.07
Ветер
(напр.,м/с)
Видим. Явления Облачность Т
(С)
Тd
(С)
f
(%)
Тe
(С)
Тes
(С)
Комфортность P
(гПа)
Po
(гПа)
Тmin
(С)
Tmax
(С)
R
(мм)
R24
(мм)
S
(см)
штиль 0 16 км ясно +15.6 +11.7 78 +15 +15 1013.7 1006.2
штиль 0 16 км ясно +15.0 +11.1 77 +15 +15 1013.4 1005.9
штиль 0 16 км ясно +13.9 +11.1 83 +14 +14 1013.5 1006.2
ЮВ 2 16 км ясно +14.4 +11.1 81 +14 +14 1013.6 1006.2 +13.9 +16.7
штиль 0 16 км 2/2 180 м +14.4 +10.6 78 +14 +14 1014.2 1006.9
СЗ 2 11 км 8/8 150 м +13.3 +10.6 84 +13 +13 1006.9
штиль 0 3 км мгла 8/8 150 м +14.4 +11.7 84 +14 +14 1007.2
штиль 0 1 км дымка 10/10 90 м +14.0 +12.0 88 +14 +14 1007.2
штиль 0 1 км дымка 10/10 90 м +14.4 +11.7 84 +14 +14 1014.8 1007.2
штиль 0 3 км дымка 10/10 60 м +13.9 +11.7 87 +13 +13 1007.6
Ю 2 5 км дымка 10/10 60 м +14.4 +11.7 84 +14 +14 1007.6
штиль 0 5 км дымка 10/10 90 м +15.0 +11.7 81 +15 +15 1015.3 1007.9
нст 2 16 км 10/10 150 м +16.1 +12.2 78 +16 +16 1007.9
В 3 16 км 8/8 180 м +17.2 +12.2 72 +17 +18 1015.5 1007.9
В 2 16 км 5/5 120 м +18.3 +12.8 70 +19 +23 1007.9
ЮВ 3 16 км ясно +20.0 +13.3 65 +22 +28 комфорт 1015.3 1007.9
штиль 0 16 км ясно +24.4 +13.3 50 +27 +43 жарко 1014.9 1007.6 +13.3 +24.4
нст 2 16 км ясно +27.8 +14.4 44 +30 +47 жарко 1014.7 1007.2
СЗ 5 16 км ясно +26.7 +13.9 45 +29 +39 жарко 1014.6 1007.2
СЗ 3 16 км ясно +27.2 +14.4 45 +29 +47 жарко 1014.3 1006.9
СЗ 4 16 км ясно +27.2 +14.4 45 +29 +43 жарко 1014.1 1006.9
З 4 16 км ясно +26.7 +13.9 45 +29 +40 жарко 1013.6 1006.2
СЗ 6 16 км ясно +24.4 +13.3 50 +27 +31 жарко 1013.1 1005.9 +23.9 +27.8
СЗ 7 16 км ясно +22.8 +13.3 55 +26 +28 жарко 1013.2 1005.9
СЗ 7 16 км ясно +19.4 +12.8 66 +20 +21 1013.3 1005.9
СЗ 6 16 км ясно +16.7 +12.2 75 +16 +16 1013.9 1006.6
СЗ 4 16 км ясно +15.6 +12.2 80 +15 +15 1014.4 1006.9
СЗ 5 14 км 2/2 180 м +15.6 +12.2 80 +14 +14 1007.2
СЗ 5 16 км 8/8 180 м +15.6 +12.2 80 +14 +14 1007.2
СЗ 4 16 км 8/8 180 м +15.6 +12.2 80 +15 +15 1014.7 1007.2
СЗ 3 16 км 10/10 150 м +15.6 +12.8 83 +15 +15 1014.6 1007.2 +15.6 +24.4
СЗ 3 14 км 10/10 120 м +16.0 +13.0 82 +16 +16 1006.9
СЗ 3 14 км 10/10 120 м +15.6 +12.8 83 +15 +15 1014.2 1006.9
СЗ 2 16 км 10/10 120 м +15.6 +12.2 80 +16 +16 1013.9 1006.6
штиль 0 16 км 10/10 150 м +15.6 +12.2 80 +15 +15 1013.6 1006.2
Ю 2 16 км 10/10 150 м +15.6 +12.2 80 +16 +16 1013.5 1006.2
ЮВ 2 16 км 10/10 120 м +15.6 +12.2 80 +16 +16 1006.2
штиль 0 14 км 10/10 120 м +15.6 +12.2 80 +15 +15 1013.3 1005.9
штиль 0 11 км 10/10 90 м +15.0 +12.2 83 +15 +15 1013.3 1005.9 +15.0 +16.1
штиль 0 4 км дымка 10/10 90 м +15.0 +12.8 87 +15 +15 1005.9
штиль 0 6 км мгла 10/10 90 м +16.0 +12.0 77 +16 +16 1006.2
штиль 0 5 км мгла 10/10 90 м +15.6 +12.2 80 +15 +15 1013.5 1006.2
СЗ 3 3 км мгла 10/10 90 м +15.0 +12.0 82 +14 +14 1006.2
СЗ 3 2 км мгла 10/10 90 м +15.0 +12.2 83 +14 +14 1013.8 1006.2
СЗ 2 4 км мгла 10/10 60 м +15.0 +12.2 83 +15 +15 1006.6
СЗ 3 8 км мгла 10/10 60 м +15.0 +12.2 83 +14 +14 1006.6
СЗ 3 16 км 10/10 150 м +15.6 +11.7 78 +15 +15 1014.2 1006.6
З 5 16 км 2/2 180 м +17.8 +12.2 70 +17 +19 1006.9
Местоположение метеостанции San Luis Obispo County Regional Airport: широта 35.2361 долгота -120.6361 высота над уровнем моря 63 м.
В архиве по умолчанию представлена погода в Сан-Луис-Обиспо за последние 1-2 суток. Обновление информации о фактической погоде в базе происходит ежечасно! Архивные данные за месяц целиком и за предыдущие месяцы Вы можете получить, выбрав интересующий диапазон дат из раскрывающегося списка и нажав кнопку "Ввод!".
Внимание! Архив погоды МЕТАР в базе сайта по станциям, не включенным в климатический монитор, хранится не более 60 дней. Нет смысла пытаться выбрать более раннюю дату.
*Определитесь, кто Вы:
Внимание! Время в таблицах - местное (без учета летнего времени). Для получения всемирного времени необходимо вычесть поправку, которая равна -8 ч.
Смотрите также архив погоды в соседних городах и на ближайших метеорологических станциях:
Партнеры нашего сайта:      
Пояснения к столбцам:
  • Ветер - указаны скорость ветра в м/с - средняя за 10 мин, порывы в срок и между сроками (в фигурных скобках) и направление, откуда дует ветер: С - северный,
  • СВ - северо-восточный, В - восточный, ЮВ - юго-восточный, Ю - южный, ЮЗ - юго-западный, З - западный, СЗ - северо-западный.
  • Видимость - горизонтальная дальность видимости в метрах или километрах. При видимости от 1 до 10 км при отсутствии осадков обычно наблюдается дымка, при ухудшении видимости до 1 км и менее - туман. В сухую погоду видимость может ухудшаться дымом, пылью или мглою.
  • Явления - указаны атмосферные явления, наблюдавшиеся в срок или в последний час перед сроком; фигурными скобками обозначены явления, наблюдавшиеся между сроками (за 1-3 часа до срока); квадратными скобками обозначены град или гололедные отложения с указанием их диаметра в мм.
  • Облачность - указаны через наклонную черту общая и нижняя облачность в баллах и высота нижней границы облаков в метрах; квадратными скобками обозначены формы облаков: Ci - перистые, Cs - перисто-слоистые, Cc - перисто-кучевые, Ac - высококучевые, As - высокослоистые, Sc - слоисто-кучевые, Ns - слоисто-дождевые, Cu - кучевые, Cb - кучево-дождевые. Подробнее классификацию облаков см. в Атласе облаков (PDF).
  • T - Температура воздуха - температура, измеренная на высоте 2 м над землей.
  • Td - Температура точки росы - температура, при понижении до которой содержащийся в воздухе водяной пар достигнет насыщения.
  • f - Относительная влажность воздуха - влажноcть воздуха, измеренная на высоте 2 м над землей.
  • Te - Эффективная температура - температура, которую ощущает одетый по сезону человек в тени. Характеристика душности погоды. При расчете учитывается влияние влажности воздуха и скорости ветра на теплоощущения человека.
  • Tes - Эффективная температура на солнце - температура, которую ощущает человек, с поправкой на солнечный нагрев. Характеристика знойности погоды. Зависит от высоты солнца над горизонтом, облачности и скорости ветра. Ночью, в пасмурную погоду, а также при ветре 12 м/с и более поправка равна нулю.
  • P - Атмосферное давление - приведенное к уровню моря атмосферное давление.
  • Po - Атмосферное давление - измеренное на уровне метеостанции атмосферное давление.
  • Tmin - Минимальная температура - минимум температуры воздуха на высоте 2 м над землей.
  • Tmax - Максимальная температура - максимум температуры воздуха на высоте 2 м над землей.
  • R - Количество осадков - Количество выпавших осадков за период времени, мм. При наведении курсора мыши на число - период времени, за который выпало указанное количество осадков.
  • R24 - Количество осадков - Количество выпавших осадков за 24 часа, мм.
  • S - Снежный покров - Высота снежного покрова, см. При наведении курсора мыши на число - состояние снежного покрова и степень покрытия местности в баллах.